This demonstration page uses our WeatherBlox Daily Observations layout. Learn more.

Left ArrowRight Arrow

39.95238, -75.16362

Hourly Observations for August 14, 2016

Temp ( °F °C ) Dew Point ( °F °C ) Humidity (%) Winds ( mph kmh ) Pressure ( in mb ) Visibility ( mi km ) Precip ( " mm )
12:54 am 00:54 Partly Cloudy 87 30.6 77 25 72 72 SW 13 20 29.92 1013 10 16 0.00 0.00
1:54 am 01:54 Partly Cloudy 86 30 77 25 75 75 SSW 13 20 29.91 1013 10 16 0.00 0.00
2:54 am 02:54 Partly Cloudy 86 30 77 25 75 75 SW 10 17 29.91 1013 10 16 0.00 0.00
3:54 am 03:54 Partly Cloudy 84 28.9 77 25 80 80 SSW 8 13 29.89 1012 10 16 0.00 0.00
4:54 am 04:54 Partly Cloudy 84 28.9 77 25 80 80 SW 10 17 29.91 1013 10 16 0.00 0.00
5:54 am 05:54 Partly Cloudy 83 28.3 77 25 82 82 SW 12 19 29.93 1014 10 16 0.00 0.00
6:54 am 06:54 Mostly Cloudy 83 28.3 77 25 82 82 WSW 7 11 29.96 1015 10 16 0.00 0.00
7:54 am 07:54 Partly Cloudy 85 29.4 74 23.3 70 70 W 8 13 29.97 1015 10 16 0.00 0.00
8:54 am 08:54 Mostly Sunny 87 30.6 74 23.3 65 65 W 9 15 29.98 1015 10 16 0.00 0.00
9:54 am 09:54 Mostly Sunny 90 32.2 73 22.8 58 58 WSW 12 19 29.98 1015 10 16 0.00 0.00
10:54 am 10:54 Mostly Sunny 91 32.8 72 22.2 54 54 W 8 13 29.98 1015 10 16 0.00 0.00
11:54 am 11:54 Partly Cloudy 93 33.9 71 21.7 49 49 W 13 20 29.99 1016 10 16 0.00 0.00
12:54 pm 12:54 Partly Cloudy 94 34.4 70 21.1 46 46 W 12 19 29.98 1015 10 16 0.00 0.00
1:54 pm 13:54 Partly Cloudy 94 34.4 71 21.7 48 48 WNW 14 22 29.98 1015 10 16 0.00 0.00
2:54 pm 14:54 Partly Cloudy 96 35.6 71 21.7 44 44 W 14 22 29.98 1015 10 16 0.00 0.00
3:54 pm 15:54 Mostly Cloudy 96 35.6 71 21.7 44 44 WSW 17 28 29.96 1015 10 16 0.00 0.00
4:54 pm 16:54 Mostly Cloudy 96 35.6 69 20.6 41 41 W 14 22 29.96 1015 10 16 0.00 0.00
5:54 pm 17:54 Mostly Cloudy 96 35.6 69 20.6 41 41 W 16 26 29.97 1015 10 16 0.00 0.00
6:54 pm 18:54 Partly Cloudy 95 35 69 20.6 43 43 WNW 12 19 29.98 1015 10 16 0.00 0.00
7:54 pm 19:54 Mostly Cloudy 93 33.9 71 21.7 49 49 W 13 20 30.00 1016 10 16 0.00 0.00
8:54 pm 20:54 Mostly Cloudy 91 32.8 73 22.8 56 56 WSW 9 15 30.03 1017 10 16 0.00 0.00
9:54 pm 21:54 Mostly Cloudy 81 27.2 75 23.9 82 82 Calm 30.04 1017 10 16 0.03 0.76
10:54 pm 22:54 Mostly Cloudy 84 28.9 72 22.2 67 67 WNW 7 11 30.06 1018 10 16 0.00 0.00
11:54 pm 23:54 Cloudy with Light Rain 81 27.2 72 22.2 74 74 W 16 26 30.05 1018 10 16 0.00 0.03

Powered by AerisWeather